Weather History for KMKE - November, 2011

Change the Weather History Date:

Monday, November 14, 2011

  Actual Average Record
Temperature  
Mean Temperature 44 °F 40 °F  
Max Temperature 52 °F 47 °F 70 °F (1971)
Min Temperature 36 °F 33 °F 7 °F (1959)
Degree Days  
Heating Degree Days 21 25  
Month to date heating degree days 270 310  
Since 1 July heating degree days 782 895  
Cooling Degree Days 0 0  
Month to date cooling degree days 0 0  
Year to date cooling degree days 793 641  
Moisture  
Dew Point 36 °F    
Average Humidity 70    
Maximum Humidity 79    
Minimum Humidity 60    
Precipitation  
Precipitation T in 0.10 in 1.24 in (1926)
Month to date precipitation 1.96 1.27  
Year to date precipitation 29.79 31.28  
Snow  
Snow 0.00 in 0.10 in 1.50 in (1959)
Month to date snowfall 0.1 0.4  
Since 1 July snowfall 0.1 0.7  
Since 1 September snowfall 0.1 0.7  
Snow Depth 0.00 in    
Sea Level Pressure  
Sea Level Pressure 29.62 in    
Wind  
Wind Speed 5 mph (SW)    
Max Wind Speed 16 mph    
Max Gust Speed 21 mph    
Visibility 10 miles    
Events Rain    
T = Trace of Precipitation, MM = Missing Value Source: NWS Daily Summary

Daily Weather History Graph

Daily Weather History Graph

Search for Another Location

Airport or City:

Trip Planner

Search our weather history database for the weather conditions in past years. The results will help you decide how hot, cold, wet, or windy it might be!

Date:

Astronomy

Nov. 14, 2011 Rise Set
Actual Time 6:42 AM CST 4:29 PM CST
Civil Twilight 6:11 AM CST 4:59 PM CST
Nautical Twilight 5:37 AM CST 5:33 PM CST
Astronomical Twilight 5:04 AM CST 6:07 PM CST
Moon 7:34 PM CST (11/14) 10:02 AM CST (11/14)
Length of Visible Light 10h 47m
Length of Day
9h 46m
Waning Gibbous, 86% of the Moon is Illuminated
Nov 14
Waning Gibbous
Nov 18
Last Quarter
Nov 25
New
Dec 2
First Quarter
Dec 10
Full

Hourly Weather History & Observations

Time (CST) Temp. Windchill Dew Point Humidity Pressure Visibility Wind Dir Wind Speed Gust Speed Precip Events Conditions
12:52 AM 46.0 °F 41.9 °F 34.0 °F 63% 29.58 in 10.0 mi WSW 8.1 mph - N/A   Partly Cloudy
1:52 AM 46.0 °F 42.5 °F 35.1 °F 66% 29.60 in 10.0 mi WSW 6.9 mph - N/A   Partly Cloudy
2:52 AM 43.0 °F 41.3 °F 35.1 °F 74% 29.61 in 10.0 mi WSW 3.5 mph - N/A   Scattered Clouds
3:52 AM 42.1 °F - 34.0 °F 73% 29.61 in 10.0 mi Calm Calm - N/A   Scattered Clouds
4:52 AM 39.9 °F 37.8 °F 34.0 °F 79% 29.63 in 10.0 mi SSW 3.5 mph - N/A   Scattered Clouds
5:52 AM 39.2 °F - 33.8 °F 81% 29.62 in 10.0 mi Calm Calm - N/A   Scattered Clouds
6:52 AM 39.0 °F 35.7 °F 34.0 °F 82% 29.62 in 10.0 mi SSW 4.6 mph - N/A   Scattered Clouds
7:52 AM 41.0 °F 36.4 °F 35.1 °F 79% 29.64 in 10.0 mi South 6.9 mph - N/A   Mostly Cloudy
8:52 AM 43.0 °F 39.5 °F 36.0 °F 76% 29.63 in 10.0 mi SSW 5.8 mph - N/A   Overcast
9:52 AM 46.0 °F - 36.0 °F 68% 29.64 in 10.0 mi Calm Calm - N/A   Overcast
10:52 AM 48.0 °F - 37.0 °F 66% 29.65 in 10.0 mi South 12.7 mph 20.7 mph 0.00 in Rain Light Rain
11:52 AM 48.0 °F - 39.0 °F 71% 29.61 in 10.0 mi Variable 3.5 mph - 0.00 in   Overcast
12:52 PM 48.9 °F - 37.9 °F 66% 29.60 in 10.0 mi Calm Calm - 0.00 in Rain Light Rain
1:52 PM 48.9 °F - 37.9 °F 66% 29.57 in 10.0 mi South 3.5 mph - 0.00 in   Mostly Cloudy
2:52 PM 51.1 °F - 39.0 °F 63% 29.55 in 10.0 mi South 8.1 mph - N/A   Scattered Clouds
3:52 PM 50.0 °F - 37.9 °F 63% 29.55 in 10.0 mi South 5.8 mph - N/A   Scattered Clouds
4:52 PM 46.9 °F - 39.0 °F 74% 29.58 in 10.0 mi SSW 8.1 mph - N/A   Scattered Clouds
5:52 PM 46.9 °F - 39.0 °F 74% 29.62 in 10.0 mi WSW 9.2 mph - N/A   Clear
6:52 PM 44.6 °F 41.4 °F 37.4 °F 76% 29.61 in 9.0 mi SSW 5.8 mph - N/A   Clear
7:52 PM 45.0 °F 39.7 °F 37.0 °F 74% 29.63 in 10.0 mi SW 10.4 mph - N/A   Clear
8:52 PM 44.1 °F 39.0 °F 37.0 °F 76% 29.66 in 10.0 mi SW 9.2 mph - N/A   Partly Cloudy
9:52 PM 45.0 °F 40.6 °F 37.9 °F 76% 29.68 in 10.0 mi WSW 8.1 mph - N/A   Partly Cloudy
10:52 PM 44.1 °F 41.5 °F 37.0 °F 76% 29.71 in 10.0 mi WSW 4.6 mph - N/A   Partly Cloudy
11:52 PM 39.9 °F - 34.0 °F 79% 29.73 in 10.0 mi Calm Calm - N/A   Scattered Clouds